This is the latest recevied weather packets stored in our database for station/object DO6GZ-WX. If no packets are shown the sender has not sent any weather packets the latest 10 day(s).
| Time | Temp. | Humidity | Pressure | Rain* | Wind** | Luminosity | Snow |
|---|---|---|---|---|---|---|---|
| 1777743215 | 25° C | 39% | 1015.8 hPa | 0 mm | - | - | - |
| 1777742588 | 25.56° C | 37% | 1015.7 hPa | 0 mm | - | - | - |
| 1777741960 | 25.56° C | 38% | 1015.9 hPa | 0 mm | - | - | - |
| 1777741332 | 25.56° C | 37% | 1015.9 hPa | 0 mm | - | - | - |
| 1777740705 | 25.56° C | 36% | 1016.1 hPa | 0 mm | - | - | - |
| 1777740077 | 25.56° C | 35% | 1016.2 hPa | 0 mm | - | - | - |
| 1777739450 | 26.11° C | 36% | 1016.3 hPa | 0 mm | - | - | - |
| 1777738822 | 26.11° C | 34% | 1016.4 hPa | 0 mm | - | - | - |
| 1777738195 | 26.11° C | 34% | 1016.5 hPa | 0 mm | - | - | - |
| 1777737567 | 26.11° C | 34% | 1016.6 hPa | 0 mm | - | - | - |
| 1777736940 | 26.11° C | 34% | 1016.7 hPa | 0 mm | - | - | - |
| 1777736312 | 26.11° C | 33% | 1016.8 hPa | 0 mm | - | - | - |
| 1777735685 | 26.67° C | 34% | 1016.9 hPa | 0 mm | - | - | - |
| 1777735057 | 26.11° C | 34% | 1016.9 hPa | 0 mm | - | - | - |
| 1777734430 | 26.67° C | 36% | 1017 hPa | 0 mm | - | - | - |
| 1777733802 | 26.11° C | 34% | 1017.2 hPa | 0 mm | - | - | - |
| 1777733174 | 26.67° C | 34% | 1017.3 hPa | 0 mm | - | - | - |
| 1777732547 | 26.67° C | 33% | 1017.4 hPa | 0 mm | - | - | - |
| 1777731919 | 26.67° C | 32% | 1017.5 hPa | 0 mm | - | - | - |
| 1777731292 | 27.22° C | 31% | 1017.6 hPa | 0 mm | - | - | - |
| 1777730664 | 26.67° C | 31% | 1017.7 hPa | 0 mm | - | - | - |
| 1777730037 | 26.11° C | 31% | 1017.7 hPa | 0 mm | - | - | - |
| 1777729409 | 26.11° C | 31% | 1017.9 hPa | 0 mm | - | - | - |
| 1777728782 | 25.56° C | 31% | 1018 hPa | 0 mm | - | - | - |
| 1777728154 | 26.11° C | 30% | 1018.2 hPa | 0 mm | - | - | - |
* Rain latest hour (hover to see other rain measurements)
** Current wind speed in m/s (hover to see current wind gust speed)